Wetterdaten: Mittwoch, 24.09.2014
Datum Zeit Temperatur Luftfeuchte Luftdruck Regen Wind Richtung Richtung Taupunkt Windchill Windben
24.09.2014 00:00 3,4 C 91 % 1019,4 hPa 0,0 l/m 0,0 km/h (0 Bft) S-SO 157 2,1 C 22,8 C 0,0 km/h (0 Bft)
24.09.2014 00:10 2,8 C 92 % 1019,3 hPa 0,0 l/m 0,0 km/h (0 Bft) S-SO 157 1,6 C 22,8 C 0,0 km/h (0 Bft)
24.09.2014 00:18 2,7 C 92 % 1019,3 hPa 0,0 l/m 0,0 km/h (0 Bft) S-SO 157 1,5 C 22,8 C 0,0 km/h (0 Bft)
24.09.2014 00:20 2,7 C 92 % 1019,3 hPa 0,0 l/m 0,0 km/h (0 Bft) S-SO 157 1,5 C 22,8 C 0,0 km/h (0 Bft)
24.09.2014 00:30 2,5 C 92 % 1019,2 hPa 0,0 l/m 0,0 km/h (0 Bft) S-SO 157 1,3 C 22,8 C 0,0 km/h (0 Bft)
24.09.2014 00:40 2,0 C 91 % 1019,2 hPa 0,0 l/m 0,0 km/h (0 Bft) S-SO 157 0,7 C 22,8 C 0,0 km/h (0 Bft)
24.09.2014 00:50 1,9 C 91 % 1019,2 hPa 0,0 l/m 0,0 km/h (0 Bft) S-SO 157 0,6 C 22,8 C 0,0 km/h (0 Bft)
24.09.2014 01:00 2,2 C 92 % 1019,2 hPa 0,0 l/m 0,0 km/h (0 Bft) S-SO 157 1,0 C 22,8 C 0,0 km/h (0 Bft)
24.09.2014 01:10 2,2 C 92 % 1019,1 hPa 0,0 l/m 0,0 km/h (0 Bft) S-SO 157 1,0 C 22,8 C 0,0 km/h (0 Bft)
24.09.2014 01:20 1,7 C 92 % 1019,1 hPa 0,0 l/m 0,0 km/h (0 Bft) S-SO 157 0,5 C 22,8 C 0,0 km/h (0 Bft)
24.09.2014 01:30 1,7 C 92 % 1019,4 hPa 0,0 l/m 0,0 km/h (0 Bft) S-SO 157 0,5 C 22,8 C 0,0 km/h (0 Bft)
24.09.2014 01:40 1,5 C 92 % 1019,4 hPa 0,0 l/m 0,0 km/h (0 Bft) S-SO 157 0,3 C 22,8 C 0,0 km/h (0 Bft)
24.09.2014 01:50 1,6 C 92 % 1019,4 hPa 0,0 l/m 0,0 km/h (0 Bft) S-SO 157 0,4 C 22,8 C 0,0 km/h (0 Bft)
24.09.2014 02:00 1,4 C 92 % 1019,4 hPa 0,0 l/m 0,0 km/h (0 Bft) S-SO 157 0,2 C 22,8 C 0,0 km/h (0 Bft)
24.09.2014 02:10 1,5 C 92 % 1019,1 hPa 0,0 l/m 0,0 km/h (0 Bft) S-SO 157 0,3 C 22,8 C 0,0 km/h (0 Bft)
24.09.2014 02:20 1,4 C 92 % 1019,1 hPa 0,0 l/m 0,0 km/h (0 Bft) S-SO 157 0,2 C 22,8 C 0,0 km/h (0 Bft)
24.09.2014 02:30 1,2 C 92 % 1019,1 hPa 0,0 l/m 0,0 km/h (0 Bft) S-SO 157 0,0 C 22,8 C 0,0 km/h (0 Bft)
24.09.2014 02:40 1,1 C 92 % 1019,1 hPa 0,0 l/m 0,0 km/h (0 Bft) S-SO 157 -0,1 C 22,8 C 0,0 km/h (0 Bft)
24.09.2014 02:50 1,2 C 92 % 1019,2 hPa 0,0 l/m 0,0 km/h (0 Bft) S-SO 157 0,0 C 22,8 C 0,0 km/h (0 Bft)
24.09.2014 03:00 1,1 C 92 % 1019,2 hPa 0,0 l/m 0,0 km/h (0 Bft) S-SO 157 -0,1 C 22,8 C 0,0 km/h (0 Bft)
24.09.2014 03:10 2,0 C 93 % 1018,8 hPa 0,0 l/m 0,0 km/h (0 Bft) S-SO 157 1,0 C 22,8 C 0,0 km/h (0 Bft)
24.09.2014 03:18 1,2 C 93 % 1018,8 hPa 0,0 l/m 0,0 km/h (0 Bft) S-SO 157 0,2 C 22,8 C 0,0 km/h (0 Bft)
24.09.2014 03:20 1,2 C 93 % 1018,8 hPa 0,0 l/m 0,0 km/h (0 Bft) S-SO 157 0,2 C 22,8 C 0,0 km/h (0 Bft)
24.09.2014 03:30 0,8 C 93 % 1018,4 hPa 0,0 l/m 0,0 km/h (0 Bft) S-SO 157 -0,2 C 22,8 C 0,0 km/h (0 Bft)
24.09.2014 03:40 1,2 C 92 % 1018,4 hPa 0,0 l/m 0,0 km/h (0 Bft) S-SO 157 0,0 C 22,8 C 0,0 km/h (0 Bft)
24.09.2014 03:50 1,4 C 93 % 1018,2 hPa 0,0 l/m 0,0 km/h (0 Bft) S-SO 157 0,4 C 22,8 C 0,0 km/h (0 Bft)
24.09.2014 04:00 1,3 C 93 % 1018,2 hPa 0,0 l/m 0,0 km/h (0 Bft) S-SO 157 0,3 C 22,8 C 0,0 km/h (0 Bft)
24.09.2014 04:10 1,1 C 93 % 1017,9 hPa 0,0 l/m 0,0 km/h (0 Bft) S-SO 157 0,1 C 22,8 C 0,0 km/h (0 Bft)
24.09.2014 04:20 1,1 C 93 % 1017,9 hPa 0,0 l/m 0,0 km/h (0 Bft) S-SO 157 0,1 C 22,8 C 0,0 km/h (0 Bft)
24.09.2014 04:30 0,8 C 93 % 1017,6 hPa 0,0 l/m 0,0 km/h (0 Bft) S-SO 157 -0,2 C 22,8 C 0,0 km/h (0 Bft)
24.09.2014 04:40 0,6 C 93 % 1017,6 hPa 0,0 l/m 0,0 km/h (0 Bft) S-SO 157 -0,4 C 22,8 C 0,0 km/h (0 Bft)
24.09.2014 04:51 0,6 C 93 % 1017,3 hPa 0,0 l/m 0,0 km/h (0 Bft) S-SO 157 -0,4 C 22,8 C 0,0 km/h (0 Bft)
24.09.2014 05:00 0,6 C 93 % 1017,3 hPa 0,0 l/m 0,0 km/h (0 Bft) S-SO 157 -0,4 C 22,8 C 0,0 km/h (0 Bft)
24.09.2014 05:10 0,7 C 93 % 1017,3 hPa 0,0 l/m 0,0 km/h (0 Bft) S-SO 157 -0,3 C 22,8 C 0,0 km/h (0 Bft)
24.09.2014 05:20 0,8 C 93 % 1017,3 hPa 0,0 l/m 0,0 km/h (0 Bft) S-SO 157 -0,2 C 22,8 C 0,0 km/h (0 Bft)
24.09.2014 05:30 0,7 C 93 % 1017,4 hPa 0,0 l/m 0,0 km/h (0 Bft) S-SO 157 -0,3 C 22,8 C 0,0 km/h (0 Bft)
24.09.2014 05:40 1,0 C 93 % 1017,4 hPa 0,0 l/m 0,0 km/h (0 Bft) S-SO 157 -0,0 C 22,8 C 0,0 km/h (0 Bft)
24.09.2014 05:50 1,1 C 93 % 1017,4 hPa 0,0 l/m 0,0 km/h (0 Bft) S-SO 157 0,1 C 22,8 C 0,0 km/h (0 Bft)
24.09.2014 06:00 1,2 C 93 % 1017,4 hPa 0,0 l/m 0,0 km/h (0 Bft) S-SO 157 0,2 C 22,8 C 0,0 km/h (0 Bft)
24.09.2014 06:08 0,8 C 94 % 1017,4 hPa 0,0 l/m 0,0 km/h (0 Bft) S-SO 157 -0,1 C 22,8 C 0,0 km/h (0 Bft)
24.09.2014 06:20 1,1 C 93 % 1017,4 hPa 0,0 l/m 0,0 km/h (0 Bft) S-SO 157 0,1 C 22,8 C 0,0 km/h (0 Bft)
24.09.2014 06:30 0,9 C 94 % 1017,3 hPa 0,0 l/m 0,0 km/h (0 Bft) S-SO 157 0,0 C 22,8 C 0,0 km/h (0 Bft)
24.09.2014 06:40 0,7 C 94 % 1017,3 hPa 0,0 l/m 0,0 km/h (0 Bft) S-SO 157 -0,2 C 22,8 C 0,0 km/h (0 Bft)
24.09.2014 06:50 0,8 C 94 % 1017,4 hPa 0,0 l/m 0,0 km/h (0 Bft) S-SO 157 -0,1 C 22,8 C 0,0 km/h (0 Bft)
24.09.2014 07:00 0,8 C 94 % 1017,4 hPa 0,0 l/m 0,0 km/h (0 Bft) S-SO 157 -0,1 C 22,8 C 0,0 km/h (0 Bft)
24.09.2014 07:10 1,0 C 94 % 1017,4 hPa 0,0 l/m 0,0 km/h (0 Bft) S-SO 157 0,1 C 22,8 C 0,0 km/h (0 Bft)
24.09.2014 07:20 1,1 C 94 % 1017,4 hPa 0,0 l/m 0,0 km/h (0 Bft) S-SO 157 0,2 C 22,8 C 0,0 km/h (0 Bft)
24.09.2014 07:30 1,1 C 94 % 1017,5 hPa 0,0 l/m 0,0 km/h (0 Bft) S-SO 157 0,2 C 22,8 C 0,0 km/h (0 Bft)
24.09.2014 07:40 1,7 C 95 % 1017,5 hPa 0,0 l/m 0,0 km/h (0 Bft) S-SO 157 1,0 C 22,8 C 0,0 km/h (0 Bft)
24.09.2014 07:50 1,4 C 95 % 1017,4 hPa 0,0 l/m 0,0 km/h (0 Bft) S-SO 157 0,7 C 22,8 C 0,0 km/h (0 Bft)
24.09.2014 08:00 1,6 C 95 % 1017,4 hPa 0,0 l/m 0,0 km/h (0 Bft) S-SO 157 0,9 C 22,8 C 0,0 km/h (0 Bft)
24.09.2014 08:10 2,0 C 95 % 1016,9 hPa 0,0 l/m 0,0 km/h (0 Bft) S-SO 157 1,3 C 22,8 C 0,0 km/h (0 Bft)
24.09.2014 08:20 2,1 C 95 % 1016,9 hPa 0,0 l/m 0,0 km/h (0 Bft) S-SO 157 1,4 C 22,8 C 0,0 km/h (0 Bft)
24.09.2014 08:30 2,5 C 95 % 1017,0 hPa 0,0 l/m 0,0 km/h (0 Bft) S-SO 157 1,8 C 22,8 C 0,0 km/h (0 Bft)
24.09.2014 08:40 3,4 C 95 % 1017,0 hPa 0,0 l/m 0,0 km/h (0 Bft) S-SO 157 2,7 C 22,8 C 0,0 km/h (0 Bft)
24.09.2014 08:50 4,2 C 95 % 1017,4 hPa 0,0 l/m 0,0 km/h (0 Bft) S-SO 157 3,5 C 22,8 C 0,0 km/h (0 Bft)
24.09.2014 09:00 4,5 C 95 % 1017,4 hPa 0,0 l/m 0,0 km/h (0 Bft) S-SO 157 3,8 C 22,8 C 0,0 km/h (0 Bft)
24.09.2014 09:08 5,8 C 94 % 1017,6 hPa 0,0 l/m 0,0 km/h (0 Bft) S-SO 157 4,9 C 22,8 C 0,0 km/h (0 Bft)
24.09.2014 09:10 5,8 C 94 % 1017,6 hPa 0,0 l/m 0,0 km/h (0 Bft) S-SO 157 4,9 C 22,8 C 0,0 km/h (0 Bft)
24.09.2014 09:20 5,9 C 94 % 1017,6 hPa 0,0 l/m 0,0 km/h (0 Bft) S-SO 157 5,0 C 22,8 C 0,0 km/h (0 Bft)
24.09.2014 09:30 8,5 C 93 % 1017,7 hPa 0,0 l/m 0,0 km/h (0 Bft) S-SO 157 7,4 C 22,8 C 0,0 km/h (0 Bft)
24.09.2014 09:40 10,4 C 89 % 1017,7 hPa 0,0 l/m 0,0 km/h (0 Bft) S-SO 157 8,7 C 22,8 C 0,0 km/h (0 Bft)
24.09.2014 09:50 11,1 C 85 % 1017,1 hPa 0,0 l/m 0,0 km/h (0 Bft) S-SO 157 8,7 C 22,8 C 0,0 km/h (0 Bft)
24.09.2014 10:00 13,6 C 81 % 1017,1 hPa 0,0 l/m 0,0 km/h (0 Bft) S-SO 157 10,4 C 22,8 C 0,0 km/h (0 Bft)
24.09.2014 10:10 14,0 C 74 % 1015,7 hPa 0,0 l/m 0,0 km/h (0 Bft) S-SO 157 9,4 C 22,8 C 0,0 km/h (0 Bft)
24.09.2014 10:20 15,9 C 75 % 1015,7 hPa 0,0 l/m 0,0 km/h (0 Bft) S-SO 157 11,5 C 22,8 C 0,0 km/h (0 Bft)
24.09.2014 10:30 16,4 C 70 % 1014,4 hPa 0,0 l/m 0,0 km/h (0 Bft) S-SO 157 10,9 C 22,8 C 0,0 km/h (0 Bft)
24.09.2014 10:40 16,1 C 69 % 1014,4 hPa 0,0 l/m 0,0 km/h (0 Bft) S-SO 157 10,4 C 22,8 C 0,0 km/h (0 Bft)
24.09.2014 10:50 16,4 C 58 % 1012,6 hPa 0,0 l/m 0,0 km/h (0 Bft) S-SO 157 8,1 C 22,8 C 0,0 km/h (0 Bft)
24.09.2014 11:00 16,7 C 64 % 1012,6 hPa 0,0 l/m 0,0 km/h (0 Bft) S-SO 157 9,9 C 22,8 C 0,0 km/h (0 Bft)
24.09.2014 11:10 17,8 C 66 % 1010,9 hPa 0,0 l/m 0,0 km/h (0 Bft) S-SO 157 11,4 C 22,8 C 0,0 km/h (0 Bft)
24.09.2014 11:20 18,5 C 60 % 1010,9 hPa 0,0 l/m 0,0 km/h (0 Bft) S-SO 157 10,6 C 22,8 C 0,0 km/h (0 Bft)
24.09.2014 11:30 19,7 C 52 % 1009,3 hPa 0,0 l/m 0,0 km/h (0 Bft) S-SO 157 9,6 C 22,8 C 0,0 km/h (0 Bft)
24.09.2014 11:40 19,7 C 45 % 1009,3 hPa 0,0 l/m 0,0 km/h (0 Bft) S-SO 157 7,4 C 22,8 C 0,0 km/h (0 Bft)
24.09.2014 11:50 21,0 C 43 % 1007,9 hPa 0,0 l/m 0,0 km/h (0 Bft) S-SO 157 7,9 C 22,8 C 0,0 km/h (0 Bft)
24.09.2014 12:00 21,4 C 38 % 1007,9 hPa 0,0 l/m 0,0 km/h (0 Bft) S-SO 157 6,5 C 22,8 C 0,0 km/h (0 Bft)
24.09.2014 12:08 20,2 C 36 % 1006,7 hPa 0,0 l/m 0,0 km/h (0 Bft) S-SO 157 4,7 C 22,8 C 0,0 km/h (0 Bft)
24.09.2014 12:10 20,2 C 36 % 1006,7 hPa 0,0 l/m 0,0 km/h (0 Bft) S-SO 157 4,7 C 22,8 C 0,0 km/h (0 Bft)
24.09.2014 12:20 22,0 C 39 % 1006,7 hPa 0,0 l/m 0,0 km/h (0 Bft) S-SO 157 7,4 C 22,8 C 0,0 km/h (0 Bft)
24.09.2014 12:30 21,6 C 38 % 1005,9 hPa 0,0 l/m 0,0 km/h (0 Bft) S-SO 157 6,7 C 22,8 C 0,0 km/h (0 Bft)
24.09.2014 12:40 21,2 C 39 % 1005,9 hPa 0,0 l/m 0,0 km/h (0 Bft) S-SO 157 6,7 C 22,8 C 0,0 km/h (0 Bft)
24.09.2014 12:50 21,0 C 40 % 1005,3 hPa 0,0 l/m 0,0 km/h (0 Bft) S-SO 157 6,9 C 22,8 C 0,0 km/h (0 Bft)
24.09.2014 13:00 21,7 C 42 % 1005,3 hPa 0,0 l/m 0,0 km/h (0 Bft) S-SO 157 8,2 C 22,8 C 0,0 km/h (0 Bft)
24.09.2014 13:10 20,8 C 43 % 1005,0 hPa 0,0 l/m 0,0 km/h (0 Bft) S-SO 157 7,8 C 22,8 C 0,0 km/h (0 Bft)
24.09.2014 13:20 20,5 C 43 % 1005,0 hPa 0,0 l/m 0,0 km/h (0 Bft) S-SO 157 7,5 C 22,8 C 0,0 km/h (0 Bft)
24.09.2014 13:30 20,6 C 43 % 1005,0 hPa 0,0 l/m 0,0 km/h (0 Bft) S-SO 157 7,6 C 22,8 C 0,0 km/h (0 Bft)
24.09.2014 13:40 20,5 C 44 % 1005,0 hPa 0,0 l/m 0,0 km/h (0 Bft) S-SO 157 7,8 C 22,8 C 0,0 km/h (0 Bft)
24.09.2014 13:50 20,0 C 44 % 1004,8 hPa 0,0 l/m 0,0 km/h (0 Bft) S-SO 157 7,4 C 22,8 C 0,0 km/h (0 Bft)
24.09.2014 14:00 21,4 C 44 % 1004,8 hPa 0,0 l/m 0,0 km/h (0 Bft) S-SO 157 8,6 C 22,8 C 0,0 km/h (0 Bft)
24.09.2014 14:10 20,8 C 44 % 1004,6 hPa 0,0 l/m 0,0 km/h (0 Bft) S-SO 157 8,1 C 22,8 C 0,0 km/h (0 Bft)
24.09.2014 14:20 20,8 C 43 % 1004,6 hPa 0,0 l/m 0,0 km/h (0 Bft) S-SO 157 7,8 C 22,8 C 0,0 km/h (0 Bft)
24.09.2014 14:30 21,5 C 43 % 1004,6 hPa 0,0 l/m 0,0 km/h (0 Bft) S-SO 157 8,4 C 22,8 C 0,0 km/h (0 Bft)
24.09.2014 14:40 21,2 C 42 % 1004,6 hPa 0,0 l/m 0,0 km/h (0 Bft) S-SO 157 7,8 C 22,8 C 0,0 km/h (0 Bft)
24.09.2014 14:50 20,8 C 43 % 1004,4 hPa 0,0 l/m 0,0 km/h (0 Bft) S-SO 157 7,8 C 22,8 C 0,0 km/h (0 Bft)
24.09.2014 15:00 21,7 C 43 % 1004,4 hPa 0,0 l/m 0,0 km/h (0 Bft) S-SO 157 8,6 C 22,8 C 0,0 km/h (0 Bft)
24.09.2014 15:08 21,8 C 42 % 1016,4 hPa 0,0 l/m 0,0 km/h (0 Bft) S-SO 157 8,3 C 22,8 C 0,0 km/h (0 Bft)
24.09.2014 15:10 21,8 C 42 % 1016,4 hPa 0,0 l/m 0,0 km/h (0 Bft) S-SO 157 8,3 C 22,8 C 0,0 km/h (0 Bft)
24.09.2014 15:20 21,5 C 42 % 1016,4 hPa 0,0 l/m 0,0 km/h (0 Bft) S-SO 157 8,0 C 22,8 C 0,0 km/h (0 Bft)
24.09.2014 15:30 20,8 C 43 % 1016,2 hPa 0,0 l/m 0,0 km/h (0 Bft) S-SO 157 7,8 C 22,8 C 0,0 km/h (0 Bft)
24.09.2014 15:40 19,9 C 45 % 1016,2 hPa 0,0 l/m 0,0 km/h (0 Bft) S-SO 157 7,6 C 22,8 C 0,0 km/h (0 Bft)
24.09.2014 15:50 19,2 C 47 % 1016,1 hPa 0,0 l/m 0,0 km/h (0 Bft) S-SO 157 7,6 C 22,8 C 0,0 km/h (0 Bft)
24.09.2014 16:00 19,0 C 48 % 1016,1 hPa 0,0 l/m 0,0 km/h (0 Bft) S-SO 157 7,7 C 22,8 C 0,0 km/h (0 Bft)
24.09.2014 16:10 18,9 C 49 % 1015,8 hPa 0,0 l/m 0,0 km/h (0 Bft) S-SO 157 7,9 C 22,8 C 0,0 km/h (0 Bft)
24.09.2014 16:20 19,5 C 46 % 1015,8 hPa 0,0 l/m 0,0 km/h (0 Bft) S-SO 157 7,6 C 22,8 C 0,0 km/h (0 Bft)
24.09.2014 16:30 19,2 C 46 % 1015,7 hPa 0,0 l/m 0,0 km/h (0 Bft) S-SO 157 7,3 C 22,8 C 0,0 km/h (0 Bft)
24.09.2014 16:40 19,3 C 46 % 1015,7 hPa 0,0 l/m 0,0 km/h (0 Bft) S-SO 157 7,4 C 22,8 C 0,0 km/h (0 Bft)
24.09.2014 16:50 19,1 C 47 % 1015,4 hPa 0,0 l/m 0,0 km/h (0 Bft) S-SO 157 7,5 C 22,8 C 0,0 km/h (0 Bft)
24.09.2014 17:00 18,5 C 47 % 1015,4 hPa 0,0 l/m 0,0 km/h (0 Bft) S-SO 157 7,0 C 22,8 C 0,0 km/h (0 Bft)
24.09.2014 17:10 17,9 C 48 % 1015,5 hPa 0,0 l/m 0,0 km/h (0 Bft) S-SO 157 6,7 C 22,8 C 0,0 km/h (0 Bft)
24.09.2014 17:20 17,6 C 49 % 1015,5 hPa 0,0 l/m 0,0 km/h (0 Bft) S-SO 157 6,8 C 22,8 C 0,0 km/h (0 Bft)
24.09.2014 17:30 17,2 C 50 % 1015,5 hPa 0,0 l/m 0,0 km/h (0 Bft) S-SO 157 6,7 C 22,8 C 0,0 km/h (0 Bft)
24.09.2014 17:40 17,1 C 51 % 1015,5 hPa 0,0 l/m 0,0 km/h (0 Bft) S-SO 157 6,9 C 22,8 C 0,0 km/h (0 Bft)
24.09.2014 17:50 16,8 C 54 % 1015,4 hPa 0,0 l/m 0,0 km/h (0 Bft) S-SO 157 7,4 C 22,8 C 0,0 km/h (0 Bft)
24.09.2014 18:00 16,5 C 56 % 1015,4 hPa 0,0 l/m 0,0 km/h (0 Bft) S-SO 157 7,7 C 22,8 C 0,0 km/h (0 Bft)
24.09.2014 18:08 16,2 C 56 % 1015,2 hPa 0,0 l/m 0,0 km/h (0 Bft) S-SO 157 7,4 C 22,8 C 0,0 km/h (0 Bft)
24.09.2014 18:20 15,9 C 59 % 1015,2 hPa 0,0 l/m 0,0 km/h (0 Bft) S-SO 157 7,9 C 22,8 C 0,0 km/h (0 Bft)
24.09.2014 18:30 15,6 C 59 % 1015,3 hPa 0,0 l/m 0,0 km/h (0 Bft) S-SO 157 7,6 C 22,8 C 0,0 km/h (0 Bft)
24.09.2014 18:40 15,1 C 61 % 1015,3 hPa 0,0 l/m 0,0 km/h (0 Bft) S-SO 157 7,6 C 22,8 C 0,0 km/h (0 Bft)
24.09.2014 18:50 14,8 C 63 % 1015,4 hPa 0,0 l/m 0,0 km/h (0 Bft) S-SO 157 7,8 C 22,8 C 0,0 km/h (0 Bft)
24.09.2014 19:00 14,6 C 65 % 1015,4 hPa 0,0 l/m 0,0 km/h (0 Bft) S-SO 157 8,1 C 22,8 C 0,0 km/h (0 Bft)
24.09.2014 19:10 14,2 C 65 % 1015,6 hPa 0,0 l/m 0,0 km/h (0 Bft) S-SO 157 7,7 C 22,8 C 0,0 km/h (0 Bft)
24.09.2014 19:20 13,6 C 66 % 1015,6 hPa 0,0 l/m 0,0 km/h (0 Bft) S-SO 157 7,4 C 22,8 C 0,0 km/h (0 Bft)
24.09.2014 19:30 13,3 C 69 % 1015,4 hPa 0,0 l/m 0,0 km/h (0 Bft) S-SO 157 7,7 C 22,8 C 0,0 km/h (0 Bft)
24.09.2014 19:40 13,1 C 70 % 1015,4 hPa 0,0 l/m 0,0 km/h (0 Bft) S-SO 157 7,8 C 22,8 C 0,0 km/h (0 Bft)
24.09.2014 19:50 13,1 C 71 % 1015,5 hPa 0,0 l/m 0,0 km/h (0 Bft) S-SO 157 8,0 C 22,8 C 0,0 km/h (0 Bft)
24.09.2014 20:00 13,1 C 70 % 1015,5 hPa 0,0 l/m 0,0 km/h (0 Bft) S-SO 157 7,8 C 22,8 C 0,0 km/h (0 Bft)
24.09.2014 20:10 13,0 C 71 % 1015,5 hPa 0,0 l/m 0,0 km/h (0 Bft) S-SO 157 7,9 C 22,8 C 0,0 km/h (0 Bft)
24.09.2014 20:20 12,9 C 72 % 1015,5 hPa 0,0 l/m 0,0 km/h (0 Bft) S-SO 157 8,0 C 22,8 C 0,0 km/h (0 Bft)
24.09.2014 20:30 12,8 C 72 % 1015,4 hPa 0,0 l/m 0,0 km/h (0 Bft) S-SO 157 7,9 C 22,8 C 0,0 km/h (0 Bft)
24.09.2014 20:40 12,5 C 72 % 1015,4 hPa 0,0 l/m 0,0 km/h (0 Bft) S-SO 157 7,6 C 22,8 C 0,0 km/h (0 Bft)
24.09.2014 20:50 12,8 C 72 % 1015,6 hPa 0,0 l/m 0,0 km/h (0 Bft) S-SO 157 7,9 C 22,8 C 0,0 km/h (0 Bft)
24.09.2014 21:00 13,2 C 70 % 1015,6 hPa 0,0 l/m 0,0 km/h (0 Bft) S-SO 157 7,9 C 22,8 C 0,0 km/h (0 Bft)
24.09.2014 21:08 13,2 C 70 % 1015,5 hPa 0,0 l/m 0,0 km/h (0 Bft) S-SO 157 7,9 C 22,8 C 0,0 km/h (0 Bft)
24.09.2014 21:10 13,2 C 70 % 1015,5 hPa 0,0 l/m 0,0 km/h (0 Bft) S-SO 157 7,9 C 22,8 C 0,0 km/h (0 Bft)
24.09.2014 21:20 13,3 C 70 % 1015,5 hPa 0,0 l/m 0,0 km/h (0 Bft) S-SO 157 7,9 C 22,8 C 0,0 km/h (0 Bft)
24.09.2014 21:30 13,0 C 71 % 1015,6 hPa 0,0 l/m 0,0 km/h (0 Bft) S-SO 157 7,9 C 22,8 C 0,0 km/h (0 Bft)
24.09.2014 21:40 13,3 C 70 % 1015,6 hPa 0,0 l/m 0,0 km/h (0 Bft) S-SO 157 7,9 C 22,8 C 0,0 km/h (0 Bft)
24.09.2014 21:50 13,4 C 70 % 1015,8 hPa 0,0 l/m 0,0 km/h (0 Bft) S-SO 157 8,0 C 22,8 C 0,0 km/h (0 Bft)
24.09.2014 22:00 13,3 C 70 % 1015,8 hPa 0,0 l/m 0,0 km/h (0 Bft) S-SO 157 7,9 C 22,8 C 0,0 km/h (0 Bft)
24.09.2014 22:10 13,2 C 71 % 1015,9 hPa 0,0 l/m 0,0 km/h (0 Bft) S-SO 157 8,1 C 22,8 C 0,0 km/h (0 Bft)
24.09.2014 22:20 13,1 C 72 % 1015,9 hPa 0,0 l/m 0,0 km/h (0 Bft) S-SO 157 8,2 C 22,8 C 0,0 km/h (0 Bft)
24.09.2014 22:30 13,0 C 73 % 1016,2 hPa 0,0 l/m 0,0 km/h (0 Bft) S-SO 157 8,3 C 22,8 C 0,0 km/h (0 Bft)
24.09.2014 22:40 12,6 C 74 % 1016,2 hPa 0,0 l/m 0,0 km/h (0 Bft) S-SO 157 8,1 C 22,8 C 0,0 km/h (0 Bft)
24.09.2014 22:50 12,1 C 75 % 1016,6 hPa 0,0 l/m 0,0 km/h (0 Bft) S-SO 157 7,8 C 22,8 C 0,0 km/h (0 Bft)
24.09.2014 23:00 11,8 C 77 % 1016,6 hPa 0,0 l/m 0,0 km/h (0 Bft) S-SO 157 7,9 C 22,8 C 0,0 km/h (0 Bft)
24.09.2014 23:10 10,2 C 85 % 1017,2 hPa 0,0 l/m 0,0 km/h (0 Bft) S-SO 157 7,8 C 22,8 C 0,0 km/h (0 Bft)
24.09.2014 23:20 9,9 C 89 % 1017,2 hPa 0,0 l/m 0,0 km/h (0 Bft) S-SO 157 8,2 C 22,8 C 0,0 km/h (0 Bft)
24.09.2014 23:30 9,9 C 90 % 1017,6 hPa 0,0 l/m 0,0 km/h (0 Bft) S-SO 157 8,3 C 22,8 C 0,0 km/h (0 Bft)
24.09.2014 23:40 9,7 C 91 % 1017,6 hPa 0,0 l/m 0,0 km/h (0 Bft) S-SO 157 8,3 C 22,8 C 0,0 km/h (0 Bft)
24.09.2014 23:50 9,6 C 92 % 1017,4 hPa 0,0 l/m 0,0 km/h (0 Bft) S-SO 157 8,4 C 22,8 C 0,0 km/h (0 Bft)
_ Min-Zeit 05:00 12:10 15:00 - 23:50 - - 05:00 23:50 23:50
Minimum _ 0,6 C 36 % 1004,4 hPa - 0,0 km/h (0 Bft) - - -0,4 C 22,8 C 0,0 km/h (0 Bft)
_ Max-Zeit 12:20 09:00 02:00 23:50 23:50 - - 10:20 23:50 23:50
Maximum _ 22,0 C 95 % 1019,4 hPa 0,0 l/m 0,0 km/h
S-SO (0 Bft)
- - 11,5 C 22,8 C 0,0 km/h
S-SO (0 Bft)
Durchschnitt _ 10,6 C 73 % 1015,1 hPa #0,0 l/m 0,0 km/h (0 Bft) - - - 5,1 C 22,8 C 0,0 km/h (0 Bft)